Terug naar catalogus

STARLINK-35849

ActiefCommunicatieVLEO
NORAD 66348·PAYLOAD·🇺🇸 United States

Gelanceerd Nov 6, 2025 vanaf Vandenberg Space Force Base

Loading…

Volgende Passages (komende 24 uur)

TLE

VersSource: CelesTrak SupGP

Epoch: Sep 15, 2026, 04:06 UTC

1 66348C 25254A   26258.17131944 -.00022302  00000+0 -65909-3 0  2588
2 66348  53.1575  70.3474 0001119  92.3792 286.4719 15.34393596    10

Volg STARLINK-35849 in realtime met AllMySat

Download on the App Store